CW0451 Weather Reports


time (UTC)temp
C
wind
direction
speed
KPH
gust
KPH
rain 1hr
cm
rain 24hr
cm
rain mn
cm
humidity
%
barometer
mb
20260507152103 14 333 9.7 25.7 0.00 1.45 1.12 71 1006.9
20260507151102 14 331 14.5 25.7 0.00 1.45 1.12 70 1007.0
20260507145102 13 323 9.7 17.7 0.00 1.45 1.12 73 1007.2
20260507144103 13 355 12.9 20.9 0.00 1.45 1.12 76 1007.2
20260507143103 13 326 11.3 17.7 0.00 1.45 1.12 78 1007.2
20260507142124 13 0 8.0 19.3 0.00 1.45 1.12 80 1007.1
20260507141102 13 335 6.4 17.7 0.00 1.45 1.12 83 1007.4
20260507135103 12 311 6.4 19.3 0.00 1.45 1.12 87 1007.5
20260507134102 11 303 4.8 11.3 0.00 1.45 1.12 90 1007.4
20260507133103 11 336 8.0 16.1 0.00 1.45 1.12 90 1007.5
20260507132102 11 331 11.3 19.3 0.00 1.45 1.12 90 1007.7
20260507131124 11 339 8.0 17.7 0.00 1.45 1.12 93 1007.7
20260507125103 10 320 3.2 8.0 0.00 1.45 1.12 93 1007.5
20260507124103 10 278 1.6 8.0 0.00 1.45 1.12 93 1007.4
20260507123102 10 320 1.6 6.4 0.00 1.45 1.12 93 1007.6
20260507122102 10 316 1.6 4.8 0.00 1.45 1.12 93 1007.7
20260507121103 10 274 1.6 6.4 0.00 1.45 1.12 93 1008.0
20260507115102 9 346 1.6 4.8 0.08 1.45 1.12 93 1007.5
20260507114103 9 359 3.2 8.0 0.08 1.45 1.12 93 1007.4
20260507113103 9 9 4.8 9.7 0.08 1.45 1.12 93 1007.4
20260507112102 9 2 6.4 12.9 0.03 1.40 1.07 93 1007.5
20260507111104 9 312 3.2 16.1 0.03 1.40 1.07 93 1007.9
20260507105103 9 346 8.0 9.7 0.05 1.35 1.02 93 1007.3
20260507104103 9 345 4.8 12.9 0.05 1.35 1.02 93 1007.1
20260507103103 9 0 9.7 14.5 0.05 1.35 1.02 93 1006.6
20260507102103 9 357 9.7 20.9 0.03 1.32 0.99 92 1006.9
20260507101102 9 357 8.0 12.9 0.03 1.32 0.99 93 1007.1
20260507095102 9 354 6.4 9.7 0.08 1.27 0.94 93 1006.9
20260507094103 9 348 6.4 16.1 0.05 1.24 0.91 93 1006.8
20260507093103 10 339 8.0 12.9 0.05 1.24 0.91 93 1006.8
20260507092123 10 357 6.4 12.9 0.05 1.24 0.91 93 1006.5
20260507091103 10 1 6.4 14.5 0.03 1.22 0.89 93 1006.4
20260507085103 10 327 1.6 9.7 0.13 1.17 0.84 93 1006.6
20260507084102 10 351 8.0 17.7 0.13 1.17 0.84 93 1006.4
20260507083103 10 354 9.7 20.9 0.13 1.17 0.84 93 1006.0
20260507082103 10 329 12.9 20.9 0.08 1.12 0.79 93 1006.5
20260507081102 11 331 8.0 25.7 0.08 1.12 0.79 93 1006.4
20260507080103 11 321 8.0 32.2 0.03 1.07 0.74 94 1006.5
20260507075103 12 326 20.9 33.8 0.58 0.91 0.58 94 1006.3
20260507074103 12 291 1.6 12.9 0.38 0.71 0.38 95 1006.4
20260507073102 12 329 4.8 8.0 0.03 0.36 0.03 95 1005.5
20260507072144 12 332 3.2 6.4 0.00 0.33 0.00 95 1005.0
20260507071103 12 334 4.8 6.4 0.00 0.33 0.00 95 1005.0
20260507065103 12 237 0.0 6.4 0.00 0.33 0.00 95 1005.2
20260507064102 12 210 1.6 4.8 0.00 0.33 0.00 95 1005.2
20260507063104 12 235 1.6 4.8 0.00 0.33 0.00 95 1005.4
20260507062102 12 198 1.6 6.4 0.00 0.33 0.00 94 1005.3
20260507061103 12 186 3.2 8.0 0.00 0.33 0.00 94 1005.3
20260507055103 12 242 1.6 4.8 0.00 0.33 0.00 94 1005.7
20260507054124 12 212 3.2 11.3 0.00 0.33 0.00 94 1005.9
20260507053103 12 212 6.4 8.0 0.00 0.33 0.00 94 1006.0
20260507052102 12 222 1.6 12.9 0.00 0.33 0.00 94 1006.1
20260507051102 12 200 3.2 9.7 0.00 0.33 0.00 94 1006.1
20260507050103 12 211 6.4 11.3 0.00 0.33 0.00 94 1006.2
20260507045103 12 237 3.2 12.9 0.00 0.33 0.00 94 1006.2
20260507044102 12 243 4.8 11.3 0.00 0.33 0.00 94 1006.2
20260507043103 12 236 6.4 14.5 0.00 0.33 0.00 94 1006.3
20260507042102 12 212 8.0 14.5 0.00 0.33 0.00 94 1006.0
20260507041124 12 208 6.4 14.5 0.00 0.33 0.00 94 1006.0
20260507035102 12 229 4.8 16.1 0.00 0.33 0.33 94 1006.0
20260507034103 12 225 8.0 16.1 0.00 0.33 0.33 94 1006.2
20260507033103 12 226 9.7 19.3 0.00 0.33 0.33 94 1006.4
20260507032145 12 209 8.0 19.3 0.00 0.33 0.33 94 1006.6
20260507031103 12 221 9.7 19.3 0.00 0.33 0.33 94 1006.2
20260507025103 12 240 8.0 25.7 0.00 0.33 0.33 94 1006.3
20260507024102 12 238 9.7 20.9 0.00 0.33 0.33 94 1006.2
20260507023103 12 217 8.0 20.9 0.00 0.33 0.33 94 1006.3
20260507022102 12 209 9.7 16.1 0.00 0.33 0.33 94 1006.3
20260507021124 12 209 11.3 19.3 0.00 0.33 0.33 94 1006.3
20260507015102 12 214 6.4 20.9 0.00 0.33 0.33 94 1006.5
20260507014103 12 199 8.0 20.9 0.00 0.33 0.33 94 1006.7
20260507013103 12 206 11.3 19.3 0.00 0.33 0.33 94 1006.6
20260507012103 12 217 9.7 27.4 0.00 0.33 0.33 94 1006.8
20260507011103 12 207 14.5 27.4 0.00 0.33 0.33 94 1006.8
20260507005123 12 229 11.3 22.5 0.00 0.33 0.33 94 1006.9
20260507004125 12 223 9.7 32.2 0.00 0.33 0.33 94 1006.9
20260507003103 12 220 8.0 24.1 0.00 0.33 0.33 94 1006.8
20260507002102 12 229 14.5 24.1 0.00 0.33 0.33 94 1006.8
20260507001103 12 210 16.1 32.2 0.00 0.33 0.33 94 1006.8
20260507000123 12 211 14.5 33.8 0.00 0.33 0.33 94 1006.9
20260506235102 12 194 14.5 30.6 0.05 0.33 0.33 94 1006.7
20260506234103 12 210 11.3 38.6 0.05 0.33 0.33 93 1006.8
20260506233102 12 212 14.5 24.1 0.05 0.33 0.33 93 1006.8
20260506232103 12 207 16.1 27.4 0.00 0.28 0.28 93 1006.9
20260506231102 12 217 17.7 29.0 0.00 0.28 0.28 93 1006.8
20260506230124 12 217 17.7 40.2 0.00 0.28 0.28 93 1006.9
20260506225103 12 202 20.9 33.8 0.15 0.25 0.25 93 1006.7
20260506224102 12 208 20.9 38.6 0.13 0.23 0.23 92 1006.7
20260506222102 12 209 20.9 37.0 0.05 0.15 0.15 92 1006.8
20260506221103 13 213 16.1 38.6 0.00 0.10 0.10 92 1007.3
20260506215103 13 216 19.3 33.8 0.05 0.10 0.10 91 1007.3
20260506214102 13 203 16.1 33.8 0.05 0.10 0.10 91 1007.2
20260506213124 13 211 20.9 33.8 0.03 0.08 0.08 91 1007.2
20260506212103 13 214 12.9 38.6 0.03 0.08 0.08 91 1007.4
20260506211102 13 201 17.7 33.8 0.03 0.08 0.08 91 1007.5
20260506210124 13 206 17.7 41.8 0.00 0.05 0.05 90 1007.5
20260506205103 13 204 14.5 33.8 0.00 0.05 0.05 90 1007.6
20260506204102 13 207 14.5 30.6 0.00 0.05 0.05 89 1007.6
20260506203124 13 219 19.3 35.4 0.00 0.05 0.05 89 1007.8
20260506202103 13 234 17.7 33.8 0.00 0.05 0.05 89 1007.8
20260506201102 13 212 24.1 38.6 0.00 0.05 0.05 90 1007.9
20260506200124 13 209 14.5 35.4 0.00 0.05 0.05 89 1008.0
20260506195102 14 205 17.7 27.4 0.05 0.05 0.05 88 1008.2
20260506194124 15 206 16.1 32.2 0.00 0.00 0.00 86 1008.2
20260506193103 15 202 20.9 40.2 0.00 0.00 0.00 84 1008.2
20260506192102 15 209 16.1 33.8 0.00 0.00 0.00 83 1008.2
20260506191103 16 202 12.9 35.4 0.00 0.00 0.00 83 1008.3
20260506185103 16 208 17.7 32.2 0.00 0.00 0.00 83 1008.3
20260506184102 16 197 22.5 48.3 0.00 0.00 0.00 82 1008.4
20260506183103 16 202 22.5 40.2 0.00 0.00 0.00 82 1008.7
20260506182103 16 196 20.9 38.6 0.00 0.00 0.00 81 1008.7
20260506181102 16 209 24.1 38.6 0.00 0.00 0.00 81 1008.7
20260506175103 16 200 24.1 43.5 0.00 0.00 0.00 80 1009.1
20260506174102 17 200 22.5 48.3 0.00 0.00 0.00 79 1009.2
20260506173103 17 208 22.5 57.9 0.00 0.00 0.00 79 1009.5
20260506172124 17 194 27.4 46.7 0.00 0.00 0.00 78 1009.4
20260506171102 17 213 27.4 48.3 0.00 0.00 0.00 78 1009.2
20260506170103 17 211 19.3 38.6 0.00 0.00 0.00 80 1009.5
20260506165102 17 215 29.0 43.5 0.00 0.00 0.00 79 1009.5
20260506164103 17 203 20.9 51.5 0.00 0.00 0.00 79 1009.8
20260506163103 17 210 22.5 51.5 0.00 0.00 0.00 79 1009.9
20260506162102 17 194 25.7 40.2 0.00 0.00 0.00 78 1009.9
20260506161103 17 203 29.0 49.9 0.00 0.00 0.00 78 1010.2
20260506155102 17 205 20.9 46.7 0.00 0.00 0.00 78 1010.3
20260506154102 18 203 24.1 40.2 0.00 0.00 0.00 77 1010.5
20260506153124 17 201 19.3 46.7 0.00 0.00 0.00 78 1010.5